Wetterdaten: Mittwoch, 13.01.2016
Datum Zeit Auen-Temp. Temp gefhlt Luftfeuchte Luftdruck Regen Wind Richtung Richtung Taupunkt Windben
13.01.2016 00:00 0,8 C 0,0 C 83 % 1007,2 hPa 0,0 mm 8,5 km/h (2 Bft) W-NW 292 -1,8 C 19,7 km/h (3 Bft)
13.01.2016 00:05 0,6 C -0,1 C 84 % 1007,2 hPa 0,0 mm 8,5 km/h (2 Bft) W-SW 247 -1,8 C 11,7 km/h (2 Bft)
13.01.2016 00:10 0,5 C -0,3 C 85 % 1007,2 hPa 0,0 mm 8,5 km/h (2 Bft) NW 315 -1,7 C 17,3 km/h (3 Bft)
13.01.2016 00:15 0,6 C -0,2 C 86 % 1007,2 hPa 0,0 mm 8,8 km/h (2 Bft) NW 315 -1,5 C 23,0 km/h (4 Bft)
13.01.2016 00:20 0,6 C -0,3 C 86 % 1007,1 hPa 0,0 mm 9,8 km/h (2 Bft) W 270 -1,5 C 12,2 km/h (2 Bft)
13.01.2016 00:25 0,5 C -0,6 C 87 % 1007,1 hPa 0,0 mm 11,1 km/h (2 Bft) W-NW 292 -1,4 C 25,1 km/h (4 Bft)
13.01.2016 00:30 0,5 C -0,5 C 87 % 1007,1 hPa 0,0 mm 10,6 km/h (2 Bft) W 270 -1,4 C 10,1 km/h (2 Bft)
13.01.2016 00:35 0,5 C -0,4 C 88 % 1007,1 hPa 0,0 mm 8,8 km/h (2 Bft) W-SW 247 -1,3 C 9,3 km/h (2 Bft)
13.01.2016 00:40 0,4 C -0,4 C 88 % 1007,0 hPa 0,0 mm 8,3 km/h (2 Bft) W-NW 292 -1,3 C 6,5 km/h (2 Bft)
13.01.2016 00:45 0,5 C -0,4 C 88 % 1007,0 hPa 0,0 mm 8,3 km/h (2 Bft) W-NW 292 -1,3 C 10,9 km/h (2 Bft)
13.01.2016 00:50 0,4 C -0,4 C 88 % 1007,0 hPa 0,0 mm 7,5 km/h (2 Bft) W 270 -1,3 C 9,1 km/h (2 Bft)
13.01.2016 00:55 0,4 C -0,3 C 88 % 1007,0 hPa 0,0 mm 6,5 km/h (2 Bft) W-NW 292 -1,3 C 10,4 km/h (2 Bft)
13.01.2016 01:00 0,4 C -0,4 C 88 % 1007,2 hPa 0,0 mm 7,8 km/h (2 Bft) W-NW 292 -1,3 C 14,0 km/h (3 Bft)
13.01.2016 01:05 0,5 C -0,5 C 88 % 1007,2 hPa 0,0 mm 8,8 km/h (2 Bft) W-SW 247 -1,3 C 12,7 km/h (3 Bft)
13.01.2016 01:10 0,7 C -0,4 C 87 % 1007,2 hPa 0,0 mm 9,8 km/h (2 Bft) W 270 -1,2 C 15,0 km/h (3 Bft)
13.01.2016 01:15 0,8 C -0,3 C 87 % 1007,2 hPa 0,0 mm 11,1 km/h (2 Bft) W 270 -1,1 C 14,2 km/h (3 Bft)
13.01.2016 01:20 0,8 C -0,3 C 87 % 1007,2 hPa 0,0 mm 11,1 km/h (2 Bft) W-SW 247 -1,1 C 15,0 km/h (3 Bft)
13.01.2016 01:25 0,8 C -0,2 C 87 % 1007,2 hPa 0,0 mm 10,4 km/h (2 Bft) W 270 -1,1 C 28,5 km/h (4 Bft)
13.01.2016 01:30 0,8 C -0,1 C 87 % 1007,2 hPa 0,0 mm 9,6 km/h (2 Bft) W 270 -1,1 C 12,7 km/h (3 Bft)
13.01.2016 01:35 0,8 C -0,3 C 86 % 1007,2 hPa 0,0 mm 10,1 km/h (2 Bft) N 360 -1,3 C 15,5 km/h (3 Bft)
13.01.2016 01:40 0,7 C -0,3 C 86 % 1007,3 hPa 0,0 mm 9,3 km/h (2 Bft) NW 315 -1,4 C 10,4 km/h (2 Bft)
13.01.2016 01:45 0,8 C -0,2 C 85 % 1007,3 hPa 0,0 mm 9,8 km/h (2 Bft) W-NW 292 -1,4 C 28,2 km/h (4 Bft)
13.01.2016 01:50 0,9 C -0,2 C 85 % 1007,3 hPa 0,0 mm 11,1 km/h (2 Bft) W-SW 247 -1,3 C 15,8 km/h (3 Bft)
13.01.2016 01:55 0,8 C -0,2 C 84 % 1007,3 hPa 0,0 mm 10,9 km/h (2 Bft) W-SW 247 -1,6 C 30,6 km/h (5 Bft)
13.01.2016 02:00 0,8 C -0,2 C 85 % 1007,5 hPa 0,0 mm 10,6 km/h (2 Bft) W-NW 292 -1,4 C 26,7 km/h (4 Bft)
13.01.2016 02:05 0,7 C -0,1 C 84 % 1007,5 hPa 0,0 mm 16,6 km/h (3 Bft) W-SW 247 -1,7 C 41,9 km/h (6 Bft)
13.01.2016 02:10 0,5 C -0,5 C 85 % 1007,5 hPa 0,0 mm 19,2 km/h (3 Bft) W-SW 247 -1,7 C 20,5 km/h (4 Bft)
13.01.2016 02:15 0,2 C -0,8 C 84 % 1007,5 hPa 0,0 mm 18,9 km/h (3 Bft) W-SW 247 -2,2 C 52,0 km/h (7 Bft)
13.01.2016 02:20 0,1 C -1,0 C 84 % 1008,0 hPa 0,0 mm 18,4 km/h (3 Bft) SW 225 -2,3 C 30,3 km/h (5 Bft)
13.01.2016 02:25 0,0 C -1,1 C 84 % 1008,0 hPa 0,0 mm 16,1 km/h (3 Bft) NW 315 -2,4 C 18,4 km/h (3 Bft)
13.01.2016 02:30 -0,1 C -1,1 C 84 % 1008,0 hPa 0,0 mm 15,3 km/h (3 Bft) W 270 -2,5 C 23,3 km/h (4 Bft)
13.01.2016 02:35 -0,1 C -1,1 C 85 % 1008,0 hPa 0,0 mm 14,0 km/h (3 Bft) W-SW 247 -2,3 C 14,0 km/h (3 Bft)
13.01.2016 02:40 -0,1 C -1,2 C 85 % 1008,7 hPa 0,0 mm 14,2 km/h (3 Bft) W-SW 247 -2,3 C 14,2 km/h (3 Bft)
13.01.2016 02:45 -0,1 C -1,2 C 84 % 1008,7 hPa 0,0 mm 12,9 km/h (3 Bft) W-SW 247 -2,5 C 13,7 km/h (3 Bft)
13.01.2016 02:50 0,0 C -1,4 C 84 % 1008,7 hPa 0,0 mm 13,5 km/h (3 Bft) W 270 -2,4 C 33,7 km/h (5 Bft)
13.01.2016 02:55 0,0 C -1,1 C 82 % 1008,7 hPa 0,0 mm 14,8 km/h (3 Bft) W-SW 247 -2,7 C 17,9 km/h (3 Bft)
13.01.2016 03:00 0,0 C -1,1 C 82 % 1008,7 hPa 0,0 mm 14,2 km/h (3 Bft) W-NW 292 -2,7 C 21,0 km/h (4 Bft)
13.01.2016 03:05 0,2 C -0,9 C 80 % 1008,7 hPa 0,0 mm 14,5 km/h (3 Bft) W-NW 292 -2,8 C 19,7 km/h (3 Bft)
13.01.2016 03:10 0,3 C -0,8 C 79 % 1008,7 hPa 0,0 mm 17,6 km/h (3 Bft) NO 45 -2,9 C 14,2 km/h (3 Bft)
13.01.2016 03:15 0,3 C -0,9 C 79 % 1008,7 hPa 0,0 mm 17,3 km/h (3 Bft) W 270 -2,9 C 21,8 km/h (4 Bft)
13.01.2016 03:20 0,3 C -0,8 C 79 % 1009,0 hPa 0,0 mm 15,5 km/h (3 Bft) W-SW 247 -2,9 C 12,4 km/h (3 Bft)
13.01.2016 03:25 0,3 C -0,7 C 79 % 1009,0 hPa 0,0 mm 14,0 km/h (3 Bft) S 180 -2,9 C 18,6 km/h (3 Bft)
13.01.2016 03:30 0,3 C -0,7 C 78 % 1009,0 hPa 0,0 mm 13,7 km/h (3 Bft) W-NW 292 -3,1 C 26,9 km/h (4 Bft)
13.01.2016 03:35 0,3 C -0,7 C 78 % 1009,0 hPa 0,0 mm 15,3 km/h (3 Bft) W 270 -3,1 C 35,0 km/h (5 Bft)
13.01.2016 03:40 0,3 C -0,8 C 78 % 1009,0 hPa 0,0 mm 17,3 km/h (3 Bft) W 270 -3,1 C 17,3 km/h (3 Bft)
13.01.2016 03:45 0,4 C -0,8 C 77 % 1009,0 hPa 0,0 mm 20,5 km/h (4 Bft) W-SW 247 -3,1 C 21,8 km/h (4 Bft)
13.01.2016 03:50 0,4 C -0,9 C 76 % 1009,0 hPa 0,0 mm 21,0 km/h (4 Bft) SW 225 -3,3 C 18,1 km/h (3 Bft)
13.01.2016 03:55 0,2 C -1,1 C 75 % 1009,0 hPa 0,0 mm 20,5 km/h (4 Bft) NW 315 -3,7 C 24,9 km/h (4 Bft)
13.01.2016 04:00 0,0 C -1,2 C 74 % 1009,0 hPa 0,0 mm 17,3 km/h (3 Bft) W-SW 247 -4,1 C 20,5 km/h (4 Bft)
13.01.2016 04:01 -0,1 C -1,2 C 74 % 1009,0 hPa 0,0 mm 14,2 km/h (3 Bft) N-NW 337 -4,2 C 11,9 km/h (2 Bft)
13.01.2016 04:06 -0,1 C -1,6 C 74 % 1009,0 hPa 0,0 mm 14,2 km/h (3 Bft) N-NW 337 -4,2 C 11,9 km/h (2 Bft)
13.01.2016 04:10 0,0 C -1,2 C 74 % 1009,0 hPa 0,0 mm 13,7 km/h (3 Bft) NW 315 -4,1 C 18,1 km/h (3 Bft)
13.01.2016 04:15 0,0 C -1,1 C 74 % 1009,0 hPa 0,0 mm 13,2 km/h (3 Bft) W 270 -4,1 C 14,5 km/h (3 Bft)
13.01.2016 04:20 0,1 C -1,3 C 73 % 1009,0 hPa 0,0 mm 12,2 km/h (2 Bft) W 270 -4,2 C 12,2 km/h (2 Bft)
13.01.2016 04:25 0,2 C -1,1 C 73 % 1009,0 hPa 0,0 mm 12,2 km/h (2 Bft) W 270 -4,1 C 15,0 km/h (3 Bft)
13.01.2016 04:30 0,2 C -1,1 C 73 % 1009,0 hPa 0,0 mm 11,7 km/h (2 Bft) W-NW 292 -4,1 C 14,2 km/h (3 Bft)
13.01.2016 04:35 0,3 C -1,0 C 73 % 1009,0 hPa 0,0 mm 12,7 km/h (3 Bft) SW 225 -4,0 C 24,1 km/h (4 Bft)
13.01.2016 04:40 0,4 C -0,6 C 73 % 1008,8 hPa 0,0 mm 14,8 km/h (3 Bft) W 270 -3,9 C 14,8 km/h (3 Bft)
13.01.2016 04:45 0,5 C -0,6 C 72 % 1008,8 hPa 0,0 mm 17,1 km/h (3 Bft) W-SW 247 -3,9 C 18,4 km/h (3 Bft)
13.01.2016 04:50 0,4 C -0,7 C 72 % 1008,8 hPa 0,0 mm 17,9 km/h (3 Bft) SW 225 -4,0 C 30,6 km/h (5 Bft)
13.01.2016 04:55 0,4 C -0,7 C 71 % 1008,8 hPa 0,0 mm 19,7 km/h (3 Bft) W-SW 247 -4,2 C 53,1 km/h (7 Bft)
13.01.2016 05:00 0,3 C -0,8 C 71 % 1009,0 hPa 0,0 mm 17,9 km/h (3 Bft) W 270 -4,3 C 15,0 km/h (3 Bft)
13.01.2016 05:05 0,3 C -0,8 C 71 % 1009,0 hPa 0,0 mm 14,2 km/h (3 Bft) S 180 -4,3 C 16,6 km/h (3 Bft)
13.01.2016 05:10 0,2 C -0,8 C 72 % 1009,0 hPa 0,0 mm 14,8 km/h (3 Bft) SW 225 -4,2 C 14,5 km/h (3 Bft)
13.01.2016 05:15 0,3 C -0,8 C 72 % 1009,0 hPa 0,0 mm 15,5 km/h (3 Bft) W 270 -4,1 C 16,6 km/h (3 Bft)
13.01.2016 05:20 0,3 C -0,8 C 72 % 1008,8 hPa 0,0 mm 14,8 km/h (3 Bft) W 270 -4,1 C 11,7 km/h (2 Bft)
13.01.2016 05:25 0,4 C -0,6 C 72 % 1008,8 hPa 0,0 mm 12,4 km/h (3 Bft) W-SW 247 -4,0 C 12,4 km/h (3 Bft)
13.01.2016 05:30 0,3 C -0,9 C 72 % 1008,8 hPa 0,0 mm 11,4 km/h (2 Bft) W 270 -4,1 C 11,1 km/h (2 Bft)
13.01.2016 05:35 0,4 C -0,8 C 72 % 1008,8 hPa 0,0 mm 11,7 km/h (2 Bft) W-SW 247 -4,0 C 17,9 km/h (3 Bft)
13.01.2016 05:40 0,5 C -0,5 C 72 % 1009,0 hPa 0,0 mm 12,4 km/h (3 Bft) W-SW 247 -3,9 C 14,8 km/h (3 Bft)
13.01.2016 05:45 0,6 C -0,3 C 71 % 1009,0 hPa 0,0 mm 13,5 km/h (3 Bft) W-NW 292 -4,0 C 11,9 km/h (2 Bft)
13.01.2016 05:50 0,7 C -0,3 C 71 % 1009,0 hPa 0,0 mm 13,7 km/h (3 Bft) W-NW 292 -3,9 C 18,6 km/h (3 Bft)
13.01.2016 05:55 0,7 C -0,2 C 70 % 1009,0 hPa 0,0 mm 14,0 km/h (3 Bft) W 270 -4,1 C 20,2 km/h (4 Bft)
13.01.2016 06:00 0,5 C -0,4 C 70 % 1009,2 hPa 0,0 mm 13,5 km/h (3 Bft) W 270 -4,3 C 19,2 km/h (3 Bft)
13.01.2016 06:05 0,5 C -0,4 C 70 % 1009,2 hPa 0,0 mm 12,7 km/h (3 Bft) W 270 -4,3 C 13,7 km/h (3 Bft)
13.01.2016 06:10 0,4 C -0,7 C 70 % 1009,2 hPa 0,0 mm 11,7 km/h (2 Bft) W-NW 292 -4,4 C 13,2 km/h (3 Bft)
13.01.2016 06:15 0,4 C -0,7 C 71 % 1009,2 hPa 0,0 mm 11,7 km/h (2 Bft) W-NW 292 -4,2 C 25,6 km/h (4 Bft)
13.01.2016 06:20 0,5 C -0,4 C 71 % 1009,4 hPa 0,0 mm 12,4 km/h (3 Bft) W-SW 247 -4,1 C 23,0 km/h (4 Bft)
13.01.2016 06:25 0,5 C -0,4 C 71 % 1009,4 hPa 0,0 mm 13,5 km/h (3 Bft) W-SW 247 -4,1 C 20,2 km/h (4 Bft)
13.01.2016 06:30 0,6 C -0,4 C 71 % 1009,4 hPa 0,0 mm 13,5 km/h (3 Bft) W-NW 292 -4,0 C 15,5 km/h (3 Bft)
13.01.2016 06:35 0,6 C -0,3 C 71 % 1009,4 hPa 0,0 mm 12,7 km/h (3 Bft) W-SW 247 -4,0 C 19,9 km/h (4 Bft)
13.01.2016 06:40 0,7 C -0,2 C 71 % 1010,0 hPa 0,0 mm 12,9 km/h (3 Bft) W-SW 247 -3,9 C 14,2 km/h (3 Bft)
13.01.2016 06:45 0,7 C -0,2 C 71 % 1010,0 hPa 0,0 mm 14,5 km/h (3 Bft) W-NW 292 -3,9 C 24,6 km/h (4 Bft)
13.01.2016 06:50 0,7 C -0,1 C 71 % 1010,0 hPa 0,0 mm 14,2 km/h (3 Bft) W-SW 247 -3,9 C 19,9 km/h (4 Bft)
13.01.2016 06:55 0,8 C -0,1 C 71 % 1010,0 hPa 0,0 mm 16,6 km/h (3 Bft) NW 315 -3,8 C 28,2 km/h (4 Bft)
13.01.2016 07:00 0,8 C -0,2 C 71 % 1010,1 hPa 0,0 mm 16,3 km/h (3 Bft) W-SW 247 -3,8 C 20,5 km/h (4 Bft)
13.01.2016 07:05 0,7 C -0,1 C 71 % 1010,1 hPa 0,0 mm 14,2 km/h (3 Bft) W 270 -3,9 C 20,2 km/h (4 Bft)
13.01.2016 07:10 0,7 C -0,1 C 71 % 1010,1 hPa 0,0 mm 13,2 km/h (3 Bft) W 270 -3,9 C 17,9 km/h (3 Bft)
13.01.2016 07:15 0,7 C -0,4 C 72 % 1010,1 hPa 0,0 mm 13,5 km/h (3 Bft) SW 225 -3,8 C 28,5 km/h (4 Bft)
13.01.2016 07:20 0,5 C -0,2 C 72 % 1009,9 hPa 0,0 mm 13,2 km/h (3 Bft) NW 315 -3,9 C 18,1 km/h (3 Bft)
13.01.2016 07:25 0,5 C -0,3 C 74 % 1009,9 hPa 0,0 mm 12,7 km/h (3 Bft) W 270 -3,6 C 12,2 km/h (2 Bft)
13.01.2016 07:30 0,5 C -0,3 C 74 % 1009,9 hPa 0,0 mm 14,2 km/h (3 Bft) W-SW 247 -3,6 C 17,1 km/h (3 Bft)
13.01.2016 07:35 0,6 C -0,3 C 73 % 1009,9 hPa 0,0 mm 14,0 km/h (3 Bft) W-NW 292 -3,7 C 13,2 km/h (3 Bft)
13.01.2016 07:40 0,7 C -0,2 C 73 % 1010,0 hPa 0,0 mm 15,0 km/h (3 Bft) NW 315 -3,6 C 19,2 km/h (3 Bft)
13.01.2016 07:45 0,7 C -0,5 C 72 % 1010,0 hPa 0,0 mm 15,8 km/h (3 Bft) W-SW 247 -3,8 C 9,6 km/h (2 Bft)
13.01.2016 07:50 0,8 C -0,1 C 72 % 1010,0 hPa 0,0 mm 14,2 km/h (3 Bft) S 180 -3,7 C 9,8 km/h (2 Bft)
13.01.2016 07:55 0,9 C 0,0 C 72 % 1010,0 hPa 0,0 mm 15,3 km/h (3 Bft) W-SW 247 -3,6 C 21,2 km/h (4 Bft)
13.01.2016 08:00 0,8 C 0,0 C 72 % 1010,0 hPa 0,0 mm 14,8 km/h (3 Bft) NW 315 -3,7 C 9,3 km/h (2 Bft)
13.01.2016 08:05 0,8 C 0,0 C 72 % 1010,0 hPa 0,0 mm 12,9 km/h (3 Bft) W-NW 292 -3,7 C 19,9 km/h (4 Bft)
13.01.2016 08:10 0,9 C 0,1 C 72 % 1010,0 hPa 0,0 mm 14,5 km/h (3 Bft) SW 225 -3,6 C 16,6 km/h (3 Bft)
13.01.2016 08:15 0,8 C 0,0 C 72 % 1010,0 hPa 0,0 mm 12,4 km/h (3 Bft) W-SW 247 -3,7 C 9,3 km/h (2 Bft)
13.01.2016 08:20 0,8 C 0,0 C 72 % 1010,2 hPa 0,0 mm 9,8 km/h (2 Bft) W-NW 292 -3,7 C 15,3 km/h (3 Bft)
13.01.2016 08:25 0,9 C -0,1 C 72 % 1010,2 hPa 0,0 mm 11,9 km/h (2 Bft) W-SW 247 -3,6 C 16,1 km/h (3 Bft)
13.01.2016 08:30 0,9 C -0,1 C 72 % 1010,2 hPa 0,0 mm 12,4 km/h (3 Bft) NW 315 -3,6 C 16,3 km/h (3 Bft)
13.01.2016 08:35 1,1 C 0,3 C 72 % 1010,2 hPa 0,0 mm 16,6 km/h (3 Bft) W-SW 247 -3,4 C 13,7 km/h (3 Bft)
13.01.2016 08:40 1,0 C 0,1 C 72 % 1010,3 hPa 0,0 mm 18,6 km/h (3 Bft) N-NO 22 -3,5 C 24,6 km/h (4 Bft)
13.01.2016 08:45 1,0 C 0,2 C 72 % 1010,3 hPa 0,0 mm 17,1 km/h (3 Bft) W-SW 247 -3,5 C 17,9 km/h (3 Bft)
13.01.2016 08:50 1,1 C 0,3 C 72 % 1010,3 hPa 0,0 mm 18,6 km/h (3 Bft) W 270 -3,4 C 27,2 km/h (4 Bft)
13.01.2016 08:55 1,1 C -0,1 C 72 % 1010,3 hPa 0,0 mm 19,2 km/h (3 Bft) SW 225 -3,4 C 31,3 km/h (5 Bft)
13.01.2016 09:00 1,2 C 0,3 C 71 % 1010,5 hPa 0,0 mm 18,4 km/h (3 Bft) NW 315 -3,5 C 42,7 km/h (6 Bft)
13.01.2016 09:05 1,2 C 0,4 C 71 % 1010,5 hPa 0,0 mm 17,6 km/h (3 Bft) W-NW 292 -3,5 C 35,2 km/h (5 Bft)
13.01.2016 09:10 1,2 C 0,5 C 71 % 1010,5 hPa 0,0 mm 16,1 km/h (3 Bft) W-SW 247 -3,5 C 7,8 km/h (2 Bft)
13.01.2016 09:15 1,3 C 0,6 C 71 % 1010,5 hPa 0,0 mm 13,7 km/h (3 Bft) W-NW 292 -3,4 C 16,8 km/h (3 Bft)
13.01.2016 09:20 1,3 C 0,3 C 71 % 1010,6 hPa 0,0 mm 13,7 km/h (3 Bft) W-SW 247 -3,4 C 23,3 km/h (4 Bft)
13.01.2016 09:25 1,2 C 0,3 C 71 % 1010,6 hPa 0,0 mm 14,5 km/h (3 Bft) W-SW 247 -3,5 C 16,1 km/h (3 Bft)
13.01.2016 09:30 1,2 C 0,2 C 71 % 1010,6 hPa 0,0 mm 13,5 km/h (3 Bft) W-SW 247 -3,5 C 12,4 km/h (3 Bft)
13.01.2016 09:35 1,1 C 0,3 C 72 % 1010,6 hPa 0,0 mm 12,2 km/h (2 Bft) W 270 -3,4 C 22,3 km/h (4 Bft)
13.01.2016 09:40 1,0 C 0,3 C 72 % 1010,8 hPa 0,0 mm 11,9 km/h (2 Bft) W-NW 292 -3,5 C 19,4 km/h (3 Bft)
13.01.2016 09:45 0,9 C 0,3 C 73 % 1010,8 hPa 0,0 mm 16,3 km/h (3 Bft) W-SW 247 -3,4 C 26,7 km/h (4 Bft)
13.01.2016 09:50 0,9 C 0,2 C 73 % 1010,8 hPa 0,0 mm 17,3 km/h (3 Bft) W-NW 292 -3,4 C 18,1 km/h (3 Bft)
13.01.2016 09:55 0,8 C 0,1 C 74 % 1010,8 hPa 0,0 mm 15,8 km/h (3 Bft) NW 315 -3,3 C 17,3 km/h (3 Bft)
13.01.2016 10:00 0,8 C -0,2 C 75 % 1011,2 hPa 0,0 mm 15,5 km/h (3 Bft) W-SW 247 -3,1 C 19,4 km/h (3 Bft)
13.01.2016 10:05 0,6 C 0,1 C 75 % 1011,2 hPa 0,0 mm 15,0 km/h (3 Bft) NW 315 -3,3 C 31,8 km/h (5 Bft)
13.01.2016 10:06 0,6 C 0,0 C 76 % 1011,2 hPa 0,0 mm 16,6 km/h (3 Bft) NW 315 -3,1 C 28,0 km/h (4 Bft)
13.01.2016 10:07 0,6 C -0,4 C 76 % 1011,2 hPa 0,0 mm 16,6 km/h (3 Bft) NW 315 -3,1 C 28,0 km/h (4 Bft)
13.01.2016 10:10 0,6 C -0,4 C 76 % 1011,2 hPa 0,0 mm 16,6 km/h (3 Bft) NW 315 -3,1 C 28,0 km/h (4 Bft)
13.01.2016 10:15 0,6 C -0,3 C 76 % 1011,2 hPa 0,0 mm 17,9 km/h (3 Bft) W-SW 247 -3,1 C 24,1 km/h (4 Bft)
13.01.2016 10:20 0,7 C 0,3 C 77 % 1011,3 hPa 0,0 mm 16,8 km/h (3 Bft) W-SW 247 -2,9 C 23,8 km/h (4 Bft)
13.01.2016 10:25 0,7 C 0,4 C 77 % 1011,3 hPa 0,0 mm 16,3 km/h (3 Bft) W 270 -2,9 C 16,8 km/h (3 Bft)
13.01.2016 10:30 0,7 C 0,4 C 77 % 1011,3 hPa 0,0 mm 15,5 km/h (3 Bft) SW 225 -2,9 C 13,7 km/h (3 Bft)
13.01.2016 10:35 0,7 C 0,0 C 78 % 1011,3 hPa 0,0 mm 15,0 km/h (3 Bft) NW 315 -2,7 C 30,8 km/h (5 Bft)
13.01.2016 10:40 0,7 C 0,4 C 78 % 1011,8 hPa 0,0 mm 16,1 km/h (3 Bft) W 270 -2,7 C 14,2 km/h (3 Bft)
13.01.2016 10:45 0,8 C 0,1 C 78 % 1011,8 hPa 0,0 mm 16,8 km/h (3 Bft) W-SW 247 -2,6 C 17,1 km/h (3 Bft)
13.01.2016 10:50 0,8 C 0,6 C 78 % 1011,8 hPa 0,0 mm 16,1 km/h (3 Bft) W 270 -2,6 C 18,9 km/h (3 Bft)
13.01.2016 10:55 0,8 C 0,5 C 78 % 1011,8 hPa 0,0 mm 19,2 km/h (3 Bft) W-SW 247 -2,6 C 20,2 km/h (4 Bft)
13.01.2016 11:00 0,8 C 0,3 C 78 % 1012,3 hPa 0,0 mm 18,6 km/h (3 Bft) W 270 -2,6 C 17,9 km/h (3 Bft)
13.01.2016 11:05 0,8 C 0,4 C 78 % 1012,3 hPa 0,0 mm 14,8 km/h (3 Bft) W 270 -2,6 C 12,9 km/h (3 Bft)
13.01.2016 11:10 0,8 C 0,1 C 78 % 1012,3 hPa 0,0 mm 14,8 km/h (3 Bft) W 270 -2,6 C 23,0 km/h (4 Bft)
13.01.2016 11:15 0,8 C 0,4 C 78 % 1012,3 hPa 0,0 mm 16,3 km/h (3 Bft) W 270 -2,6 C 22,8 km/h (4 Bft)
13.01.2016 11:20 0,9 C 0,4 C 77 % 1012,8 hPa 0,0 mm 17,6 km/h (3 Bft) W 270 -2,7 C 16,1 km/h (3 Bft)
13.01.2016 11:25 0,9 C 0,5 C 77 % 1012,8 hPa 0,0 mm 18,4 km/h (3 Bft) W-SW 247 -2,7 C 23,3 km/h (4 Bft)
13.01.2016 11:30 0,9 C 0,5 C 77 % 1012,8 hPa 0,0 mm 18,4 km/h (3 Bft) NO 45 -2,7 C 22,3 km/h (4 Bft)
13.01.2016 11:35 1,0 C 0,6 C 77 % 1012,8 hPa 0,0 mm 17,1 km/h (3 Bft) W-SW 247 -2,6 C 23,3 km/h (4 Bft)
13.01.2016 11:40 1,0 C 0,8 C 77 % 1012,8 hPa 0,0 mm 16,6 km/h (3 Bft) S-SO 157 -2,6 C 14,5 km/h (3 Bft)
13.01.2016 11:45 0,9 C 0,7 C 77 % 1012,8 hPa 0,0 mm 16,1 km/h (3 Bft) W-SW 247 -2,7 C 33,7 km/h (5 Bft)
13.01.2016 11:50 0,9 C 0,7 C 77 % 1012,8 hPa 0,0 mm 17,3 km/h (3 Bft) NW 315 -2,7 C 26,7 km/h (4 Bft)
13.01.2016 11:55 1,0 C 0,5 C 76 % 1012,8 hPa 0,0 mm 22,0 km/h (4 Bft) W-NW 292 -2,7 C 59,8 km/h (7 Bft)
13.01.2016 12:00 1,0 C 0,4 C 76 % 1013,3 hPa 0,0 mm 23,0 km/h (4 Bft) SW 225 -2,7 C 14,8 km/h (3 Bft)
13.01.2016 12:05 1,0 C -0,1 C 76 % 1013,3 hPa 0,0 mm 22,0 km/h (4 Bft) W-SW 247 -2,7 C 25,4 km/h (4 Bft)
13.01.2016 12:10 1,0 C 0,4 C 76 % 1013,3 hPa 0,0 mm 19,4 km/h (3 Bft) W-SW 247 -2,7 C 19,9 km/h (4 Bft)
13.01.2016 12:15 1,0 C 0,3 C 75 % 1013,3 hPa 0,0 mm 18,9 km/h (3 Bft) NW 315 -2,9 C 11,1 km/h (2 Bft)
13.01.2016 12:20 1,0 C 0,4 C 75 % 1013,5 hPa 0,0 mm 18,4 km/h (3 Bft) W-SW 247 -2,9 C 25,1 km/h (4 Bft)
13.01.2016 12:25 1,0 C 0,1 C 75 % 1013,5 hPa 0,0 mm 17,9 km/h (3 Bft) W 270 -2,9 C 22,3 km/h (4 Bft)
13.01.2016 12:30 1,1 C 0,5 C 75 % 1013,5 hPa 0,0 mm 17,1 km/h (3 Bft) W-NW 292 -2,8 C 13,5 km/h (3 Bft)
13.01.2016 12:35 1,1 C 0,6 C 75 % 1013,5 hPa 0,0 mm 17,3 km/h (3 Bft) W-SW 247 -2,8 C 11,1 km/h (2 Bft)
13.01.2016 12:40 1,1 C 0,5 C 75 % 1014,0 hPa 0,0 mm 17,6 km/h (3 Bft) W-SW 247 -2,8 C 19,7 km/h (3 Bft)
13.01.2016 12:45 1,1 C 0,6 C 75 % 1014,0 hPa 0,0 mm 15,3 km/h (3 Bft) W 270 -2,8 C 19,4 km/h (3 Bft)
13.01.2016 12:50 1,1 C 0,4 C 75 % 1014,0 hPa 0,0 mm 15,3 km/h (3 Bft) NW 315 -2,8 C 36,8 km/h (5 Bft)
13.01.2016 12:55 1,2 C 0,7 C 74 % 1014,0 hPa 0,0 mm 19,2 km/h (3 Bft) W-SW 247 -2,9 C 22,5 km/h (4 Bft)
13.01.2016 13:00 1,2 C 0,7 C 74 % 1014,0 hPa 0,0 mm 18,9 km/h (3 Bft) W 270 -2,9 C 24,1 km/h (4 Bft)
13.01.2016 13:05 1,2 C 0,7 C 74 % 1014,0 hPa 0,0 mm 19,2 km/h (3 Bft) W 270 -2,9 C 31,6 km/h (5 Bft)
13.01.2016 13:10 1,2 C 0,4 C 74 % 1014,0 hPa 0,0 mm 18,6 km/h (3 Bft) W 270 -2,9 C 33,1 km/h (5 Bft)
13.01.2016 13:15 1,2 C 0,4 C 74 % 1014,0 hPa 0,0 mm 17,9 km/h (3 Bft) W-SW 247 -2,9 C 51,8 km/h (7 Bft)
13.01.2016 13:20 1,2 C 0,7 C 74 % 1014,2 hPa 0,0 mm 19,7 km/h (3 Bft) W-SW 247 -2,9 C 14,2 km/h (3 Bft)
13.01.2016 13:25 1,1 C 0,5 C 74 % 1014,2 hPa 0,0 mm 20,7 km/h (4 Bft) W 270 -3,0 C 44,8 km/h (6 Bft)
13.01.2016 13:30 1,1 C 0,3 C 74 % 1014,2 hPa 0,0 mm 20,2 km/h (4 Bft) W 270 -3,0 C 17,1 km/h (3 Bft)
13.01.2016 13:35 1,0 C 0,3 C 74 % 1014,2 hPa 0,0 mm 22,3 km/h (4 Bft) NW 315 -3,1 C 12,9 km/h (3 Bft)
13.01.2016 13:40 1,0 C 0,3 C 74 % 1014,8 hPa 0,0 mm 19,2 km/h (3 Bft) W 270 -3,1 C 23,8 km/h (4 Bft)
13.01.2016 13:45 1,0 C 0,3 C 75 % 1014,8 hPa 0,0 mm 15,8 km/h (3 Bft) W-SW 247 -2,9 C 27,2 km/h (4 Bft)
13.01.2016 13:50 1,0 C 0,3 C 75 % 1014,8 hPa 0,0 mm 19,2 km/h (3 Bft) W 270 -2,9 C 28,0 km/h (4 Bft)
13.01.2016 13:55 1,0 C 0,2 C 75 % 1014,8 hPa 0,0 mm 19,7 km/h (3 Bft) W-SW 247 -2,9 C 19,4 km/h (3 Bft)
13.01.2016 14:00 0,9 C 0,1 C 75 % 1014,8 hPa 0,0 mm 17,3 km/h (3 Bft) W 270 -3,0 C 17,9 km/h (3 Bft)
13.01.2016 14:05 0,9 C -0,1 C 75 % 1014,8 hPa 0,0 mm 17,1 km/h (3 Bft) W-SW 247 -3,0 C 19,9 km/h (4 Bft)
13.01.2016 14:10 1,0 C 0,3 C 75 % 1014,8 hPa 0,0 mm 18,6 km/h (3 Bft) NW 315 -2,9 C 15,0 km/h (3 Bft)
13.01.2016 14:15 1,0 C 0,3 C 75 % 1014,8 hPa 0,0 mm 18,9 km/h (3 Bft) NW 315 -2,9 C 20,5 km/h (4 Bft)
13.01.2016 14:20 1,0 C 0,4 C 75 % 1015,0 hPa 0,0 mm 16,8 km/h (3 Bft) NW 315 -2,9 C 13,5 km/h (3 Bft)
13.01.2016 14:25 1,1 C 0,5 C 75 % 1015,0 hPa 0,0 mm 18,1 km/h (3 Bft) SW 225 -2,8 C 19,4 km/h (3 Bft)
13.01.2016 14:30 1,1 C 0,5 C 75 % 1015,0 hPa 0,0 mm 18,4 km/h (3 Bft) NW 315 -2,8 C 41,4 km/h (6 Bft)
13.01.2016 14:35 1,0 C 0,4 C 75 % 1015,0 hPa 0,0 mm 17,3 km/h (3 Bft) NW 315 -2,9 C 17,6 km/h (3 Bft)
13.01.2016 14:40 1,0 C 0,4 C 75 % 1015,6 hPa 0,0 mm 19,9 km/h (4 Bft) W 270 -2,9 C 24,6 km/h (4 Bft)
13.01.2016 14:45 1,0 C 0,2 C 75 % 1015,6 hPa 0,0 mm 19,7 km/h (3 Bft) NW 315 -2,9 C 24,3 km/h (4 Bft)
13.01.2016 14:50 1,0 C 0,2 C 75 % 1015,6 hPa 0,0 mm 17,1 km/h (3 Bft) W-SW 247 -2,9 C 12,7 km/h (3 Bft)
13.01.2016 14:55 1,0 C 0,3 C 75 % 1015,6 hPa 0,0 mm 16,1 km/h (3 Bft) SW 225 -2,9 C 20,5 km/h (4 Bft)
13.01.2016 15:00 1,0 C -0,1 C 75 % 1015,8 hPa 0,0 mm 16,3 km/h (3 Bft) W 270 -2,9 C 16,3 km/h (3 Bft)
13.01.2016 15:05 1,0 C 0,2 C 75 % 1015,8 hPa 0,0 mm 20,7 km/h (4 Bft) W 270 -2,9 C 31,8 km/h (5 Bft)
13.01.2016 15:10 1,0 C 0,0 C 75 % 1015,8 hPa 0,0 mm 21,8 km/h (4 Bft) SO 135 -2,9 C 19,2 km/h (3 Bft)
13.01.2016 15:15 1,0 C 0,1 C 75 % 1015,8 hPa 0,0 mm 20,2 km/h (4 Bft) W 270 -2,9 C 25,6 km/h (4 Bft)
13.01.2016 15:20 1,0 C 0,1 C 75 % 1016,1 hPa 0,0 mm 20,5 km/h (4 Bft) W-NW 292 -2,9 C 17,3 km/h (3 Bft)
13.01.2016 15:25 1,0 C 0,2 C 74 % 1016,1 hPa 0,0 mm 17,6 km/h (3 Bft) W-SW 247 -3,1 C 27,2 km/h (4 Bft)
13.01.2016 15:30 1,0 C -0,1 C 74 % 1016,1 hPa 0,0 mm 17,1 km/h (3 Bft) W-NW 292 -3,1 C 39,1 km/h (6 Bft)
13.01.2016 15:35 1,0 C 0,2 C 74 % 1016,1 hPa 0,0 mm 19,9 km/h (4 Bft) W 270 -3,1 C 25,1 km/h (4 Bft)
13.01.2016 15:40 1,0 C 0,1 C 74 % 1016,5 hPa 0,0 mm 20,7 km/h (4 Bft) W-NW 292 -3,1 C 16,6 km/h (3 Bft)
13.01.2016 15:45 1,0 C -0,3 C 74 % 1016,5 hPa 0,0 mm 20,5 km/h (4 Bft) W-NW 292 -3,1 C 32,1 km/h (5 Bft)
13.01.2016 15:50 1,0 C -0,4 C 74 % 1016,5 hPa 0,0 mm 19,4 km/h (3 Bft) W-NW 292 -3,1 C 14,5 km/h (3 Bft)
13.01.2016 15:55 1,0 C -0,4 C 73 % 1016,5 hPa 0,0 mm 19,4 km/h (3 Bft) W 270 -3,3 C 13,7 km/h (3 Bft)
13.01.2016 16:00 0,9 C -0,1 C 73 % 1016,5 hPa 0,0 mm 19,9 km/h (4 Bft) SW 225 -3,4 C 22,0 km/h (4 Bft)
13.01.2016 16:05 0,8 C -0,2 C 73 % 1016,5 hPa 0,0 mm 19,9 km/h (4 Bft) NW 315 -3,5 C 16,6 km/h (3 Bft)
13.01.2016 16:06 0,8 C -0,2 C 73 % 1016,5 hPa 0,0 mm 20,5 km/h (4 Bft) W 270 -3,5 C 37,0 km/h (5 Bft)
13.01.2016 16:08 0,8 C -0,7 C 73 % 1016,5 hPa 0,0 mm 20,5 km/h (4 Bft) W 270 -3,5 C 37,0 km/h (5 Bft)
13.01.2016 16:10 0,8 C -0,7 C 73 % 1016,5 hPa 0,0 mm 20,5 km/h (4 Bft) W 270 -3,5 C 37,0 km/h (5 Bft)
13.01.2016 16:15 0,8 C -0,2 C 73 % 1016,5 hPa 0,0 mm 19,7 km/h (3 Bft) NW 315 -3,5 C 37,5 km/h (5 Bft)
13.01.2016 16:20 0,8 C -0,2 C 73 % 1016,7 hPa 0,0 mm 20,5 km/h (4 Bft) W-NW 292 -3,5 C 24,9 km/h (4 Bft)
13.01.2016 16:25 0,7 C -0,3 C 73 % 1016,7 hPa 0,0 mm 19,2 km/h (3 Bft) N-NW 337 -3,6 C 34,7 km/h (5 Bft)
13.01.2016 16:30 0,7 C -0,7 C 73 % 1016,7 hPa 0,0 mm 18,4 km/h (3 Bft) W 270 -3,6 C 19,7 km/h (3 Bft)
13.01.2016 16:35 0,6 C -0,4 C 74 % 1016,7 hPa 0,0 mm 17,9 km/h (3 Bft) NW 315 -3,5 C 25,4 km/h (4 Bft)
13.01.2016 16:40 0,5 C -0,4 C 75 % 1016,8 hPa 0,0 mm 15,5 km/h (3 Bft) W 270 -3,4 C 18,4 km/h (3 Bft)
13.01.2016 16:45 0,4 C -0,4 C 76 % 1016,8 hPa 0,0 mm 14,2 km/h (3 Bft) W-NW 292 -3,3 C 19,7 km/h (3 Bft)
13.01.2016 16:50 0,3 C -0,5 C 77 % 1016,8 hPa 0,0 mm 14,0 km/h (3 Bft) NW 315 -3,2 C 12,7 km/h (3 Bft)
13.01.2016 16:55 0,3 C -0,6 C 77 % 1016,8 hPa 0,0 mm 14,8 km/h (3 Bft) W-SW 247 -3,2 C 7,8 km/h (2 Bft)
13.01.2016 17:00 0,3 C -0,6 C 77 % 1016,8 hPa 0,0 mm 14,8 km/h (3 Bft) W 270 -3,2 C 15,5 km/h (3 Bft)
13.01.2016 17:05 0,3 C -0,6 C 76 % 1016,8 hPa 0,0 mm 12,9 km/h (3 Bft) S-SW 202 -3,4 C 13,5 km/h (3 Bft)
13.01.2016 17:10 0,2 C -0,8 C 76 % 1016,8 hPa 0,0 mm 10,9 km/h (2 Bft) W 270 -3,5 C 18,9 km/h (3 Bft)
13.01.2016 17:15 0,1 C -0,8 C 76 % 1016,8 hPa 0,0 mm 10,1 km/h (2 Bft) W-NW 292 -3,6 C 15,5 km/h (3 Bft)
13.01.2016 17:20 0,0 C -1,0 C 76 % 1017,0 hPa 0,0 mm 10,6 km/h (2 Bft) W-SW 247 -3,7 C 18,4 km/h (3 Bft)
13.01.2016 17:25 -0,1 C -1,3 C 76 % 1017,0 hPa 0,0 mm 11,7 km/h (2 Bft) NW 315 -3,8 C 18,4 km/h (3 Bft)
13.01.2016 17:30 -0,1 C -1,3 C 76 % 1017,0 hPa 0,0 mm 11,9 km/h (2 Bft) W-NW 292 -3,8 C 9,6 km/h (2 Bft)
13.01.2016 17:35 -0,2 C -1,4 C 75 % 1017,0 hPa 0,0 mm 11,1 km/h (2 Bft) W 270 -4,1 C 12,9 km/h (3 Bft)
13.01.2016 17:40 -0,1 C -1,4 C 75 % 1017,1 hPa 0,0 mm 11,1 km/h (2 Bft) W-NW 292 -4,0 C 9,8 km/h (2 Bft)
13.01.2016 17:45 -0,1 C -1,4 C 75 % 1017,1 hPa 0,0 mm 12,2 km/h (2 Bft) W 270 -4,0 C 13,5 km/h (3 Bft)
13.01.2016 17:50 0,0 C -1,3 C 75 % 1017,1 hPa 0,0 mm 12,2 km/h (2 Bft) W 270 -3,9 C 16,3 km/h (3 Bft)
13.01.2016 17:55 0,1 C -1,1 C 74 % 1017,1 hPa 0,0 mm 11,7 km/h (2 Bft) W 270 -4,0 C 12,2 km/h (2 Bft)
13.01.2016 18:00 0,1 C -1,0 C 74 % 1017,4 hPa 0,0 mm 10,4 km/h (2 Bft) W 270 -4,0 C 6,5 km/h (2 Bft)
13.01.2016 18:05 0,0 C -1,0 C 74 % 1017,4 hPa 0,0 mm 10,1 km/h (2 Bft) W-SW 247 -4,1 C 12,7 km/h (3 Bft)
13.01.2016 18:10 0,0 C -0,9 C 74 % 1017,4 hPa 0,0 mm 9,1 km/h (2 Bft) N-NW 337 -4,1 C 3,4 km/h (1 Bft)
13.01.2016 18:15 0,0 C -0,9 C 73 % 1017,4 hPa 0,0 mm 9,3 km/h (2 Bft) S 180 -4,2 C 17,3 km/h (3 Bft)
13.01.2016 18:20 0,1 C -1,0 C 73 % 1017,7 hPa 0,0 mm 10,6 km/h (2 Bft) W-SW 247 -4,2 C 13,2 km/h (3 Bft)
13.01.2016 18:25 0,0 C -0,9 C 73 % 1017,7 hPa 0,0 mm 9,6 km/h (2 Bft) NW 315 -4,2 C 10,1 km/h (2 Bft)
13.01.2016 18:30 0,2 C -0,8 C 73 % 1017,7 hPa 0,0 mm 9,1 km/h (2 Bft) W-NW 292 -4,1 C 8,5 km/h (2 Bft)
13.01.2016 18:35 -0,1 C -1,0 C 72 % 1017,7 hPa 0,0 mm 9,1 km/h (2 Bft) W-NW 292 -4,5 C 12,9 km/h (3 Bft)
13.01.2016 18:40 0,1 C -1,0 C 72 % 1017,5 hPa 0,0 mm 10,4 km/h (2 Bft) NW 315 -4,3 C 13,5 km/h (3 Bft)
13.01.2016 18:45 0,1 C -0,8 C 71 % 1017,5 hPa 0,0 mm 14,0 km/h (3 Bft) W-SW 247 -4,5 C 19,2 km/h (3 Bft)
13.01.2016 18:50 0,1 C -0,9 C 70 % 1017,5 hPa 0,0 mm 12,9 km/h (3 Bft) NW 315 -4,7 C 9,3 km/h (2 Bft)
13.01.2016 18:55 0,1 C -1,0 C 69 % 1017,5 hPa 0,0 mm 11,4 km/h (2 Bft) W 270 -4,9 C 16,3 km/h (3 Bft)
13.01.2016 19:00 0,1 C -1,0 C 69 % 1017,5 hPa 0,0 mm 10,9 km/h (2 Bft) SW 225 -4,9 C 18,1 km/h (3 Bft)
13.01.2016 19:05 0,1 C -1,1 C 69 % 1017,5 hPa 0,0 mm 11,7 km/h (2 Bft) W-SW 247 -4,9 C 15,0 km/h (3 Bft)
13.01.2016 19:10 0,0 C -1,1 C 68 % 1017,5 hPa 0,0 mm 11,7 km/h (2 Bft) W-SW 247 -5,2 C 12,7 km/h (3 Bft)
13.01.2016 19:15 0,1 C -1,0 C 68 % 1017,5 hPa 0,0 mm 11,4 km/h (2 Bft) W 270 -5,1 C 16,1 km/h (3 Bft)
13.01.2016 19:20 0,2 C -0,7 C 67 % 1017,5 hPa 0,0 mm 12,4 km/h (3 Bft) W-SW 247 -5,2 C 11,1 km/h (2 Bft)
13.01.2016 19:25 0,3 C -1,0 C 67 % 1017,5 hPa 0,0 mm 12,7 km/h (3 Bft) W-NW 292 -5,1 C 9,1 km/h (2 Bft)
13.01.2016 19:30 0,3 C -0,9 C 66 % 1017,5 hPa 0,0 mm 11,7 km/h (2 Bft) W-SW 247 -5,3 C 17,9 km/h (3 Bft)
13.01.2016 19:35 0,2 C -0,9 C 66 % 1017,5 hPa 0,0 mm 11,7 km/h (2 Bft) W-SW 247 -5,4 C 16,3 km/h (3 Bft)
13.01.2016 19:40 0,0 C -1,0 C 66 % 1017,6 hPa 0,0 mm 10,4 km/h (2 Bft) W-NW 292 -5,6 C 7,3 km/h (2 Bft)
13.01.2016 19:45 0,1 C -1,0 C 65 % 1017,6 hPa 0,0 mm 9,8 km/h (2 Bft) W-SW 247 -5,7 C 14,8 km/h (3 Bft)
13.01.2016 19:50 -0,1 C -1,1 C 65 % 1017,6 hPa 0,0 mm 9,6 km/h (2 Bft) W 270 -5,9 C 16,1 km/h (3 Bft)
13.01.2016 19:55 -0,1 C -1,2 C 64 % 1017,6 hPa 0,0 mm 9,6 km/h (2 Bft) W-SW 247 -6,1 C 5,2 km/h (1 Bft)
13.01.2016 20:00 -0,3 C -1,3 C 64 % 1017,8 hPa 0,0 mm 9,1 km/h (2 Bft) SW 225 -6,3 C 18,1 km/h (3 Bft)
13.01.2016 20:05 -0,3 C -1,2 C 64 % 1017,8 hPa 0,0 mm 7,8 km/h (2 Bft) W-SW 247 -6,3 C 6,7 km/h (2 Bft)
13.01.2016 20:10 -0,3 C -1,3 C 63 % 1017,8 hPa 0,0 mm 8,3 km/h (2 Bft) S 180 -6,5 C 9,3 km/h (2 Bft)
13.01.2016 20:15 -0,2 C -1,3 C 63 % 1017,8 hPa 0,0 mm 9,3 km/h (2 Bft) W-NW 292 -6,4 C 9,3 km/h (2 Bft)
13.01.2016 20:20 -0,4 C -1,5 C 63 % 1017,5 hPa 0,0 mm 9,1 km/h (2 Bft) W-NW 292 -6,6 C 10,4 km/h (2 Bft)
13.01.2016 20:25 -0,6 C -1,5 C 62 % 1017,5 hPa 0,0 mm 7,3 km/h (2 Bft) NW 315 -7,0 C 7,8 km/h (2 Bft)
13.01.2016 20:30 -0,6 C -1,5 C 62 % 1017,5 hPa 0,0 mm 7,3 km/h (2 Bft) W-NW 292 -7,0 C 6,5 km/h (2 Bft)
13.01.2016 20:35 -0,6 C -1,5 C 62 % 1017,5 hPa 0,0 mm 7,0 km/h (2 Bft) W-SW 247 -7,0 C 5,4 km/h (1 Bft)
13.01.2016 20:40 -0,6 C -1,5 C 62 % 1017,5 hPa 0,0 mm 7,5 km/h (2 Bft) NW 315 -7,0 C 10,1 km/h (2 Bft)
13.01.2016 20:45 -0,5 C -1,6 C 62 % 1017,5 hPa 0,0 mm 9,1 km/h (2 Bft) W 270 -6,9 C 11,1 km/h (2 Bft)
13.01.2016 20:50 -0,7 C -1,7 C 62 % 1017,5 hPa 0,0 mm 8,8 km/h (2 Bft) NW 315 -7,1 C 10,4 km/h (2 Bft)
13.01.2016 20:55 -0,7 C -1,7 C 62 % 1017,5 hPa 0,0 mm 8,0 km/h (2 Bft) SW 225 -7,1 C 12,9 km/h (3 Bft)
13.01.2016 21:00 -0,8 C -1,8 C 62 % 1017,6 hPa 0,0 mm 8,5 km/h (2 Bft) W 270 -7,1 C 6,5 km/h (2 Bft)
13.01.2016 21:05 -0,8 C -1,9 C 62 % 1017,6 hPa 0,0 mm 9,3 km/h (2 Bft) W 270 -7,1 C 12,4 km/h (3 Bft)
13.01.2016 21:10 -1,0 C -2,0 C 62 % 1017,6 hPa 0,0 mm 9,1 km/h (2 Bft) W-SW 247 -7,3 C 7,5 km/h (2 Bft)
13.01.2016 21:15 -1,0 C -1,9 C 62 % 1017,6 hPa 0,0 mm 8,0 km/h (2 Bft) W-NW 292 -7,3 C 3,9 km/h (1 Bft)
13.01.2016 21:20 -1,1 C -1,9 C 62 % 1017,7 hPa 0,0 mm 7,3 km/h (2 Bft) NW 315 -7,4 C 12,7 km/h (3 Bft)
13.01.2016 21:25 -1,1 C -1,8 C 62 % 1017,7 hPa 0,0 mm 6,5 km/h (2 Bft) W 270 -7,4 C 14,0 km/h (3 Bft)
13.01.2016 21:30 -0,9 C -1,8 C 62 % 1017,7 hPa 0,0 mm 7,3 km/h (2 Bft) SW 225 -7,2 C 9,8 km/h (2 Bft)
13.01.2016 21:35 -0,7 C -1,7 C 62 % 1017,7 hPa 0,0 mm 8,5 km/h (2 Bft) W-SW 247 -7,1 C 12,7 km/h (3 Bft)
13.01.2016 21:40 -0,6 C -1,6 C 61 % 1017,8 hPa 0,0 mm 8,5 km/h (2 Bft) SW 225 -7,2 C 11,1 km/h (2 Bft)
13.01.2016 21:45 -0,5 C -1,5 C 61 % 1017,8 hPa 0,0 mm 9,1 km/h (2 Bft) W-SW 247 -7,1 C 7,3 km/h (2 Bft)
13.01.2016 21:50 -0,5 C -1,6 C 60 % 1017,8 hPa 0,0 mm 9,8 km/h (2 Bft) W-SW 247 -7,3 C 13,7 km/h (3 Bft)
13.01.2016 21:55 -0,7 C -1,7 C 60 % 1017,8 hPa 0,0 mm 9,3 km/h (2 Bft) W-NW 292 -7,5 C 2,8 km/h (1 Bft)
13.01.2016 22:00 -0,6 C -1,7 C 59 % 1017,8 hPa 0,0 mm 9,6 km/h (2 Bft) W-SW 247 -7,6 C 8,0 km/h (2 Bft)
13.01.2016 22:05 -0,6 C -1,8 C 59 % 1017,8 hPa 0,0 mm 10,9 km/h (2 Bft) S 180 -7,6 C 14,8 km/h (3 Bft)
13.01.2016 22:06 -0,7 C -1,9 C 59 % 1017,8 hPa 0,0 mm 11,4 km/h (2 Bft) S 180 -7,7 C 14,5 km/h (3 Bft)
13.01.2016 22:09 -0,7 C -1,9 C 59 % 1017,8 hPa 0,0 mm 11,4 km/h (2 Bft) S 180 -7,7 C 14,5 km/h (3 Bft)
13.01.2016 22:10 -0,7 C -1,9 C 59 % 1017,8 hPa 0,0 mm 11,4 km/h (2 Bft) S 180 -7,7 C 14,5 km/h (3 Bft)
13.01.2016 22:15 -0,9 C -2,0 C 59 % 1017,8 hPa 0,0 mm 10,6 km/h (2 Bft) W-SW 247 -7,9 C 12,7 km/h (3 Bft)
13.01.2016 22:20 -0,8 C -2,0 C 59 % 1018,0 hPa 0,0 mm 11,4 km/h (2 Bft) SW 225 -7,8 C 15,5 km/h (3 Bft)
13.01.2016 22:25 -0,7 C -1,7 C 59 % 1018,0 hPa 0,0 mm 12,4 km/h (3 Bft) S 180 -7,7 C 7,3 km/h (2 Bft)
13.01.2016 22:30 -0,8 C -2,0 C 59 % 1018,0 hPa 0,0 mm 11,1 km/h (2 Bft) W-SW 247 -7,8 C 10,9 km/h (2 Bft)
13.01.2016 22:35 -0,9 C -2,0 C 59 % 1018,0 hPa 0,0 mm 9,8 km/h (2 Bft) SW 225 -7,9 C 10,1 km/h (2 Bft)
13.01.2016 22:40 -0,9 C -2,0 C 59 % 1018,2 hPa 0,0 mm 9,8 km/h (2 Bft) W 270 -7,9 C 12,7 km/h (3 Bft)
13.01.2016 22:45 -0,6 C -1,9 C 59 % 1018,2 hPa 0,0 mm 11,4 km/h (2 Bft) W-SW 247 -7,6 C 6,2 km/h (2 Bft)
13.01.2016 22:50 -0,7 C -1,9 C 59 % 1018,2 hPa 0,0 mm 10,6 km/h (2 Bft) SW 225 -7,7 C 15,8 km/h (3 Bft)
13.01.2016 22:55 -0,6 C -1,6 C 59 % 1018,2 hPa 0,0 mm 8,3 km/h (2 Bft) W-SW 247 -7,6 C 15,8 km/h (3 Bft)
13.01.2016 23:00 -0,6 C -1,6 C 59 % 1018,0 hPa 0,0 mm 9,6 km/h (2 Bft) W-SW 247 -7,6 C 16,1 km/h (3 Bft)
13.01.2016 23:05 -0,5 C -1,6 C 59 % 1018,0 hPa 0,0 mm 11,1 km/h (2 Bft) SW 225 -7,5 C 14,8 km/h (3 Bft)
13.01.2016 23:10 -0,5 C -1,6 C 59 % 1018,0 hPa 0,0 mm 10,6 km/h (2 Bft) S 180 -7,5 C 10,4 km/h (2 Bft)
13.01.2016 23:15 -0,5 C -1,4 C 59 % 1018,0 hPa 0,0 mm 9,3 km/h (2 Bft) W-SW 247 -7,5 C 18,6 km/h (3 Bft)
13.01.2016 23:20 -0,4 C -1,4 C 59 % 1018,0 hPa 0,0 mm 9,8 km/h (2 Bft) S-SW 202 -7,4 C 9,3 km/h (2 Bft)
13.01.2016 23:25 -0,4 C -1,2 C 59 % 1018,0 hPa 0,0 mm 8,8 km/h (2 Bft) S 180 -7,4 C 7,0 km/h (2 Bft)
13.01.2016 23:30 -0,4 C -1,2 C 59 % 1018,0 hPa 0,0 mm 8,0 km/h (2 Bft) S-SW 202 -7,4 C 11,4 km/h (2 Bft)
13.01.2016 23:35 -0,4 C -1,1 C 60 % 1018,0 hPa 0,0 mm 7,3 km/h (2 Bft) W-SW 247 -7,2 C 5,4 km/h (1 Bft)
13.01.2016 23:40 -0,4 C -1,2 C 60 % 1018,0 hPa 0,0 mm 7,8 km/h (2 Bft) W-SW 247 -7,2 C 9,6 km/h (2 Bft)
13.01.2016 23:45 -0,3 C -1,1 C 60 % 1018,0 hPa 0,0 mm 7,8 km/h (2 Bft) SW 225 -7,1 C 9,8 km/h (2 Bft)
13.01.2016 23:50 -0,3 C -0,9 C 60 % 1018,0 hPa 0,0 mm 6,2 km/h (2 Bft) SW 225 -7,1 C 11,4 km/h (2 Bft)
13.01.2016 23:55 -0,2 C -0,7 C 59 % 1018,0 hPa 0,0 mm 5,2 km/h (1 Bft) W 270 -7,2 C 7,3 km/h (2 Bft)
_ Min-Zeit 21:25 22:40 23:55 00:55 - 23:55 - - 22:40 21:55
Minimum _ -1,1 C -2,0 C 59 % 1007,0 hPa - 5,2 km/h (1 Bft) - - -7,9 C 2,8 km/h (1 Bft)
_ Max-Zeit 09:20 11:40 01:05 22:55 23:55 12:00 - - 01:30 11:55
Maximum _ 1,3 C 0,8 C 88 % 1018,2 hPa 0,0 mm 23,0 km/h
SW (4 Bft)
- - -1,1 C 59,8 km/h
W-NW (7 Bft)
Durchschnitt _ 0,4 C -0,5 C 73 % 1013,0 hPa #0,0 mm 13,9 km/h (3 Bft) W-SW - -3,9 C 18,0 km/h (3 Bft)